Time,TemperatureF,DewpointF,PressureIn,WindDirection,WindDirectionDegrees,WindSpeedMPH,WindSpeedGustMPH,Humidity,HourlyPrecipIn,Conditions,Clouds,dailyrainin,SoftwareType,DateUTC
2013-03-16 00:04:00,39.5,36.0,29.88,ESE,105,1.0,4.0,86,0.00,,,0.00,weatherlink.com 1.10,2013-03-16 04:04:00,
2013-03-16 00:19:00,39.2,36.0,29.88,East,84,2.0,4.0,87,0.00,,,0.00,weatherlink.com 1.10,2013-03-16 04:19:00,
2013-03-16 00:34:00,38.9,36.0,29.87,East,94,2.0,3.0,88,0.00,,,0.00,weatherlink.com 1.10,2013-03-16 04:34:00,
2013-03-16 00:49:00,38.7,36.0,29.87,East,96,2.0,4.0,88,0.00,,,0.00,weatherlink.com 1.10,2013-03-16 04:49:00,
2013-03-16 01:04:00,38.3,35.0,29.87,West,277,1.0,3.0,89,0.01,,,0.01,weatherlink.com 1.10,2013-03-16 05:04:00,
2013-03-16 01:19:00,37.7,35.0,29.86,NE,34,1.0,5.0,88,0.01,,,0.01,weatherlink.com 1.10,2013-03-16 05:19:00,
2013-03-16 01:34:00,37.0,34.0,29.86,SE,135,2.0,5.0,89,0.02,,,0.02,weatherlink.com 1.10,2013-03-16 05:34:00,
2013-03-16 02:05:00,36.1,34.0,29.86,ENE,67,0.0,2.0,90,0.01,,,0.02,weatherlink.com 1.10,2013-03-16 06:05:00,
2013-03-16 02:20:00,35.6,33.0,29.86,NNE,29,0.0,4.0,90,0.02,,,0.03,weatherlink.com 1.10,2013-03-16 06:20:00,
2013-03-16 02:35:00,35.3,33.0,29.85,ENE,77,2.0,2.0,91,0.01,,,0.03,weatherlink.com 1.10,2013-03-16 06:35:00,
2013-03-16 02:50:00,34.8,33.0,29.85,ESE,103,1.0,4.0,91,0.02,,,0.04,weatherlink.com 1.10,2013-03-16 06:50:00,
2013-03-16 03:05:00,34.8,33.0,29.84,East,82,2.0,3.0,91,0.02,,,0.04,weatherlink.com 1.10,2013-03-16 07:05:00,
2013-03-16 03:20:00,34.6,33.0,29.84,ENE,77,2.0,3.0,92,0.01,,,0.04,weatherlink.com 1.10,2013-03-16 07:20:00,
2013-03-16 03:35:00,34.5,33.0,29.82,ENE,75,2.0,3.0,92,0.01,,,0.04,weatherlink.com 1.10,2013-03-16 07:35:00,
2013-03-16 03:50:00,34.4,32.0,29.82,East,98,2.0,5.0,92,0.00,,,0.04,weatherlink.com 1.10,2013-03-16 07:50:00,
2013-03-16 04:05:00,34.3,33.0,29.81,East,79,1.0,5.0,93,0.00,,,0.04,weatherlink.com 1.10,2013-03-16 08:05:00,
2013-03-16 04:20:00,34.3,33.0,29.80,East,88,3.0,5.0,93,0.00,,,0.04,weatherlink.com 1.10,2013-03-16 08:20:00,
2013-03-16 04:35:00,34.3,33.0,29.78,ENE,68,3.0,7.0,93,0.00,,,0.04,weatherlink.com 1.10,2013-03-16 08:35:00,
2013-03-16 04:50:00,34.3,33.0,29.78,East,79,5.0,7.0,93,0.00,,,0.04,weatherlink.com 1.10,2013-03-16 08:50:00,
2013-03-16 05:05:00,34.2,32.0,29.79,ESE,103,3.0,6.0,92,0.00,,,0.04,weatherlink.com 1.10,2013-03-16 09:05:00,
2013-03-16 05:20:00,34.3,32.0,29.78,ENE,77,3.0,6.0,92,0.00,,,0.04,weatherlink.com 1.10,2013-03-16 09:20:00,
2013-03-16 05:35:00,34.3,32.0,29.78,ENE,66,6.0,6.0,91,0.00,,,0.04,weatherlink.com 1.10,2013-03-16 09:35:00,
2013-03-16 05:50:00,34.3,32.0,29.78,ESE,109,3.0,6.0,91,0.00,,,0.04,weatherlink.com 1.10,2013-03-16 09:50:00,
2013-03-16 06:05:00,34.4,32.0,29.77,ENE,74,2.0,6.0,91,0.00,,,0.04,weatherlink.com 1.10,2013-03-16 10:05:00,
2013-03-16 06:20:00,34.5,32.0,29.77,ENE,77,4.0,4.0,90,0.01,,,0.05,weatherlink.com 1.10,2013-03-16 10:20:00,
2013-03-16 06:35:00,34.4,32.0,29.77,East,101,3.0,4.0,91,0.01,,,0.05,weatherlink.com 1.10,2013-03-16 10:35:00,
2013-03-16 06:50:00,34.4,32.0,29.77,East,88,0.0,3.0,91,0.01,,,0.05,weatherlink.com 1.10,2013-03-16 10:50:00,
2013-03-16 07:05:00,34.4,32.0,29.77,ENE,77,2.0,3.0,91,0.01,,,0.05,weatherlink.com 1.10,2013-03-16 11:05:00,
2013-03-16 07:20:00,34.6,32.0,29.76,East,84,3.0,4.0,91,0.00,,,0.05,weatherlink.com 1.10,2013-03-16 11:20:00,
2013-03-16 07:35:00,34.6,32.0,29.75,NE,43,3.0,6.0,91,0.01,,,0.06,weatherlink.com 1.10,2013-03-16 11:35:00,
2013-03-16 07:50:00,34.7,32.0,29.76,East,91,0.0,5.0,91,0.01,,,0.06,weatherlink.com 1.10,2013-03-16 11:50:00,
2013-03-16 08:05:00,34.7,32.0,29.77,East,92,1.0,3.0,91,0.01,,,0.06,weatherlink.com 1.10,2013-03-16 12:05:00,
2013-03-16 08:20:00,34.7,32.0,29.76,East,81,0.0,4.0,91,0.01,,,0.06,weatherlink.com 1.10,2013-03-16 12:20:00,
2013-03-16 08:35:00,34.7,32.0,29.75,East,89,4.0,6.0,91,0.00,,,0.06,weatherlink.com 1.10,2013-03-16 12:35:00,
2013-03-16 08:50:00,34.7,32.0,29.74,East,101,3.0,7.0,91,0.00,,,0.06,weatherlink.com 1.10,2013-03-16 12:50:00,
2013-03-16 09:05:00,34.8,33.0,29.73,East,98,4.0,5.0,91,0.00,,,0.06,weatherlink.com 1.10,2013-03-16 13:05:00,
2013-03-16 09:20:00,35.0,33.0,29.73,East,88,4.0,5.0,91,0.00,,,0.06,weatherlink.com 1.10,2013-03-16 13:20:00,
2013-03-16 09:35:00,35.1,33.0,29.72,East,96,1.0,6.0,91,0.00,,,0.06,weatherlink.com 1.10,2013-03-16 13:35:00,
2013-03-16 09:50:00,35.2,33.0,29.71,ENE,70,3.0,7.0,91,0.00,,,0.06,weatherlink.com 1.10,2013-03-16 13:50:00,
2013-03-16 10:05:00,35.4,33.0,29.72,NNE,15,4.0,5.0,91,0.00,,,0.06,weatherlink.com 1.10,2013-03-16 14:05:00,
2013-03-16 10:20:00,35.5,33.0,29.71,East,92,2.0,4.0,91,0.00,,,0.06,weatherlink.com 1.10,2013-03-16 14:20:00,
2013-03-16 10:35:00,35.6,33.0,29.71,East,98,1.0,3.0,91,0.00,,,0.06,weatherlink.com 1.10,2013-03-16 14:35:00,
2013-03-16 10:50:00,35.6,33.0,29.70,ENE,70,2.0,5.0,90,0.00,,,0.06,weatherlink.com 1.10,2013-03-16 14:50:00,
2013-03-16 11:06:00,35.9,33.0,29.70,East,94,1.0,4.0,90,0.00,,,0.06,weatherlink.com 1.10,2013-03-16 15:06:00,
2013-03-16 11:21:00,35.9,33.0,29.69,East,94,3.0,5.0,90,0.00,,,0.06,weatherlink.com 1.10,2013-03-16 15:21:00,
2013-03-16 11:36:00,36.0,33.0,29.68,ESE,105,3.0,5.0,90,0.00,,,0.06,weatherlink.com 1.10,2013-03-16 15:36:00,
2013-03-16 11:51:00,36.3,34.0,29.68,East,84,4.0,4.0,91,0.00,,,0.06,weatherlink.com 1.10,2013-03-16 15:51:00,
2013-03-16 12:06:00,36.5,34.0,29.68,East,82,5.0,7.0,91,0.00,,,0.06,weatherlink.com 1.10,2013-03-16 16:06:00,
2013-03-16 12:21:00,36.7,34.0,29.67,East,95,2.0,6.0,90,0.00,,,0.06,weatherlink.com 1.10,2013-03-16 16:21:00,
2013-03-16 12:36:00,36.7,34.0,29.67,ESE,120,2.0,5.0,90,0.00,,,0.06,weatherlink.com 1.10,2013-03-16 16:36:00,
2013-03-16 13:06:00,36.9,34.0,29.67,ENE,61,2.0,6.0,89,0.00,,,0.06,weatherlink.com 1.10,2013-03-16 17:06:00,
2013-03-16 13:36:00,36.8,34.0,29.68,ENE,60,0.0,5.0,89,0.00,,,0.06,weatherlink.com 1.10,2013-03-16 17:36:00,
2013-03-16 14:06:00,37.1,34.0,29.69,NNW,329,2.0,3.0,89,0.00,,,0.06,weatherlink.com 1.10,2013-03-16 18:06:00,
2013-03-16 14:51:00,37.7,35.0,29.70,NW,318,0.0,2.0,88,0.00,,,0.06,weatherlink.com 1.10,2013-03-16 18:51:00,
2013-03-16 15:06:00,37.6,35.0,29.70,WSW,248,0.0,0.0,89,0.00,,,0.06,weatherlink.com 1.10,2013-03-16 19:06:00,
2013-03-16 15:51:00,37.3,36.0,29.71,WNW,284,3.0,3.0,93,0.00,,,0.06,weatherlink.com 1.10,2013-03-16 19:51:00,
2013-03-16 16:06:00,37.5,36.0,29.72,West,276,2.0,3.0,94,0.00,,,0.06,weatherlink.com 1.10,2013-03-16 20:06:00,
2013-03-16 16:21:00,37.7,36.0,29.73,West,274,2.0,2.0,94,0.00,,,0.06,weatherlink.com 1.10,2013-03-16 20:21:00,
2013-03-16 16:51:00,38.8,37.0,29.75,West,262,0.0,6.0,93,0.00,,,0.06,weatherlink.com 1.10,2013-03-16 20:51:00,
2013-03-16 17:21:00,39.1,37.0,29.77,WNW,288,4.0,8.0,92,0.00,,,0.06,weatherlink.com 1.10,2013-03-16 21:21:00,
2013-03-16 17:36:00,38.8,37.0,29.79,WNW,284,5.0,8.0,92,0.00,,,0.06,weatherlink.com 1.10,2013-03-16 21:36:00,
2013-03-16 17:51:00,38.6,37.0,29.80,NW,308,3.0,10.0,92,0.00,,,0.06,weatherlink.com 1.10,2013-03-16 21:51:00,
2013-03-16 18:06:00,38.3,36.0,29.82,West,261,7.0,9.0,92,0.00,,,0.06,weatherlink.com 1.10,2013-03-16 22:06:00,
2013-03-16 18:21:00,37.6,35.0,29.83,WNW,288,6.0,9.0,91,0.00,,,0.06,weatherlink.com 1.10,2013-03-16 22:21:00,
2013-03-16 18:51:00,37.1,35.0,29.84,WNW,284,2.0,9.0,91,0.00,,,0.06,weatherlink.com 1.10,2013-03-16 22:51:00,
2013-03-16 19:06:00,37.0,34.0,29.86,West,273,4.0,8.0,90,0.00,,,0.06,weatherlink.com 1.10,2013-03-16 23:06:00,
2013-03-16 19:36:00,36.9,34.0,29.88,West,281,4.0,7.0,89,0.00,,,0.06,weatherlink.com 1.10,2013-03-16 23:36:00,
2013-03-16 19:51:00,36.7,34.0,29.89,West,274,6.0,8.0,88,0.00,,,0.06,weatherlink.com 1.10,2013-03-16 23:51:00,
2013-03-16 20:06:00,36.5,33.0,29.90,WNW,300,5.0,8.0,88,0.00,,,0.06,weatherlink.com 1.10,2013-03-17 00:06:00,
2013-03-16 20:21:00,36.3,33.0,29.92,WNW,294,1.0,8.0,87,0.00,,,0.06,weatherlink.com 1.10,2013-03-17 00:21:00,
2013-03-16 20:36:00,36.3,33.0,29.92,WNW,300,2.0,6.0,88,0.00,,,0.06,weatherlink.com 1.10,2013-03-17 00:36:00,
2013-03-16 20:51:00,36.3,33.0,29.93,West,276,5.0,5.0,88,0.00,,,0.06,weatherlink.com 1.10,2013-03-17 00:51:00,
2013-03-16 21:06:00,35.8,33.0,29.94,WNW,298,3.0,7.0,89,0.00,,,0.06,weatherlink.com 1.10,2013-03-17 01:06:00,
2013-03-16 21:21:00,35.6,33.0,29.95,WNW,295,2.0,5.0,89,0.00,,,0.06,weatherlink.com 1.10,2013-03-17 01:21:00,
2013-03-16 21:36:00,35.3,32.0,29.96,West,270,3.0,7.0,89,0.00,,,0.06,weatherlink.com 1.10,2013-03-17 01:36:00,
2013-03-16 21:51:00,34.8,32.0,29.97,WNW,285,4.0,8.0,89,0.00,,,0.06,weatherlink.com 1.10,2013-03-17 01:51:00,
2013-03-16 22:06:00,34.5,32.0,29.98,WNW,282,5.0,8.0,89,0.00,,,0.06,weatherlink.com 1.10,2013-03-17 02:06:00,
2013-03-16 22:21:00,34.3,31.0,29.98,WNW,284,5.0,6.0,89,0.00,,,0.06,weatherlink.com 1.10,2013-03-17 02:21:00,
2013-03-16 22:36:00,34.3,31.0,29.98,WNW,295,4.0,5.0,89,0.00,,,0.06,weatherlink.com 1.10,2013-03-17 02:36:00,
2013-03-16 22:51:00,34.3,31.0,29.99,WNW,284,2.0,5.0,89,0.00,,,0.06,weatherlink.com 1.10,2013-03-17 02:51:00,
2013-03-16 23:07:00,34.1,31.0,29.98,NW,309,2.0,4.0,88,0.00,,,0.06,weatherlink.com 1.10,2013-03-17 03:07:00,
2013-03-16 23:22:00,34.1,31.0,29.99,West,274,0.0,3.0,88,0.00,,,0.06,weatherlink.com 1.10,2013-03-17 03:22:00,
2013-03-16 23:37:00,33.8,30.0,29.99,WNW,291,3.0,4.0,87,0.00,,,0.00,weatherlink.com 1.10,2013-03-17 03:37:00,
2013-03-16 23:52:00,33.6,30.0,29.99,NW,316,1.0,5.0,87,0.00,,,0.00,weatherlink.com 1.10,2013-03-17 03:52:00,